Tracking 25711 objects as of 23-May-2022
HD Live streaming from Space Station
objects crossing your sky now

ONEWEB-0184

Track ONEWEB-0184 now!
10-day predictions
ONEWEB-0184 is classified as:


NORAD ID: 48211
Int'l Code: 2021-031B
Perigee: 1,209.5 km
Apogee: 1,213.5 km
Inclination: 87.9 °
Period: 109.5 minutes
Semi major axis: 7582 km
RCS: Unknown
Launch date: April 25, 2021
Source: United Kingdom (UK)
Launch site: VOSTOCHNY COSMODROME (VOSTO)
aabbcc
Your satellite tracking list
Your tracking list is empty




NASA's NSSDC Master Catalog

Two Line Element Set (TLE):
1 48211U 21031B   22141.50647336  .00050975  00000-0  13595+0 0  9995
2 48211  87.9040 225.3472 0002669 143.8183 216.3128 13.14878259 52842
Source of the keplerian elements: AFSPC